Powrót do katalogu

COSMOS 1508

AktywnyMilitariaPO
NORAD 14483·PAYLOAD·🇷🇺 Russia

Wystrzelony Nov 11, 1983 z Plesetsk Cosmodrome

Loading…

Następne Przeloty (najbliższe 24 godziny)

TLE

ŚwieżeSource: Space-Track

Epoka: Sep 14, 2026, 20:57 UTC

1 14483U 83111A   26257.87330772  .00001427  00000-0  87430-4 0  9993
2 14483  82.8856 178.3197 0670906 193.8248 164.3745 14.08236679133955

Śledź COSMOS 1508 w czasie rzeczywistym z AllMySat

Download on the App Store